Regional Weather Roundup
Issued by NWS Bismarck, ND

Home | Current Version | Previous Version | Text Only | Print | Product List | Glossary On
Versions: 1 2 3 4 5 6 7 8 9 10 11 12 13 14 15 16 17 18 19 20 21 22 23 24 25 26 27 28 29 30 31 32 33 34 35 36 37 38 39 40 41 42 43 44 45 46 47 48 49 50
000
ASUS43 KBIS 231810
RWRBIS

NWR BROADCAST TEXT
NATIONAL WEATHER SERVICE BISMARCK ND
100 PM CDT FRI JUN 23 2017

NOTE: "FAIR" INDICATES FEW OR NO CLOUDS BELOW 12,000 FEET WITH NO
SIGNIFICANT WEATHER AND/OR OBSTRUCTIONS TO VISIBILITY.


CITY           SKY/WX    TMP DP  RH WIND       PRES   REMARKS
WILLISTON      SUNNY     64  33  31 NW28G40   30.14R
MINOT          PTSUNNY   62  38  40 W24G35    30.03S
MINOT AFB      CLOUDY    58  38  47 NW24G33   30.02R
BISMARCK       MOSUNNY   62  36  37 NW22G31   30.07S
DICKINSON      CLOUDY    62  28  27 NW23G33   30.11F
GARRISON         N/A     58  37  45 NW26G33   30.05S
HETTINGER ARPT SUNNY     60  29  30 NW29G39   30.15F
JAMESTOWN      CLOUDY    61  43  51 NW24G32   29.96S
HAZEN          MOCLDY    59  37  44 NW24G35   30.10S
LINTON         MOCLDY   N/A N/A N/A NW21G33   30.08S
MANDAN         MOCLDY    59  37  44 NW24G35   30.07S
STANLEY        MOCLDY    57  36  44 NW24G31   30.09F
TIOGA          MOCLDY    57  36  44 NW30      30.11R
WATFORD CITY   FAIR      59  36  41 NW26G33   30.11F
$$

CITY           SKY/WX    TMP DP  RH WIND       PRES   REMARKS
GRAND FORKS    CLOUDY    63  49  60 NW22G28   29.88S
GRAND FORKS AF PTSUNNY   63  46  54 NW15G32   29.89S
DEVILS LAKE    CLOUDY    61  42  49 NW22G29   29.94S
FARGO          CLOUDY    63  49  60 NW23G29   29.89S
CAVALIER       CLOUDY    59  46  63 NW20      29.88R
GRAFTON        CLOUDY    61  48  63 NW21      29.90S
GWINNER        CLOUDY    63  48  59 NW23      29.95S
LANGDON        MOCLDY    61  46  59 NW18G28   29.91S
ROLLA            N/A     57  39  51 NW25G33   29.96R
$$

CITY           SKY/WX    TMP DP  RH WIND       PRES   REMARKS
ABERDEEN       CLOUDY    62  46  55 W20G29    30.01S
MOBRIDGE       SUNNY     67  35  30 NW28G36   30.05F
BUFFALO          N/A     63  30  28 NW29G40   30.11S
RAPID CITY     SUNNY     65  35  33 N23G32    30.18F
GLASGOW        PTSUNNY   64  32  30 NW20G30   30.21S
SIDNEY         PTSUNNY   62  35  36 NW21      30.16S
WOLF POINT     PTSUNNY   66  31  27 NW20G30   30.19S
GLENDIVE       MOSUNNY   63  31  30 NW25G36   30.19F
MILES CITY     MOSUNNY   64  28  25 NW13G25   30.23F
BAKER          MOSUNNY   59  31  34 NW20G35   30.21S
$$

CITY           SKY/WX    TMP DP  RH WIND       PRES   REMARKS
BILLINGS       MOSUNNY   65  34  31 N8        30.27F
GREAT FALLS    SUNNY     63  35  35 NE7       30.29F
REGINA         PTSUNNY   54  36  50 NW25G33   30.10F
ESTEVAN        PTSUNNY   55  37  50 NW30G37   30.09R
$$





USA.gov is the U.S. government's official web portal to all federal, state and local government web resources and services.